TITAN 3C TRANSTAGE DEB, 38701

Orbit data source: Space-Track

TITAN 3C TRANSTAGE DEB, 38701 is space debris in GEO originally from a launch on Thu, 26 Sep 1968 UTC launched from the Air Force Eastern Test Range (AFETR). Debris objects in space refer to the collection of defunct objects orbiting the Earth. Examples of debris include non-operational satellites, rocket bodies, and fragments generated from explosions, collisions, or faulty payload assembly.

Loading next visibility...
Identifier
38701, 1968-081AB
Orbit
GEO
Country
Flag of USUS
Related business
Manufacturer
Unknown
Mission
Spacecraft
Bus & Motor
Unknown
Mass
Unknown
Launch date (UTC)
1968-09-26 (58 years ago)
Launch vehicle
Unknown
Launch site
Air Force Eastern Test Range (AFETR)
Object type
Payload
Rocket body
Debris
Shape & HBR
Unknown shape, 1.1 m
Radar Cross Section
Medium (>0.1 m² and <1 m²)

Expand to show TLE details & history
Last TLE update: 3 months ago

TLE from 3 months ago
0 TITAN 3C TRANSTAGE DEB
1 38701U 68081AB  26170.59414426 -.00000341  00000-0  00000+0 0  9991
2 38701   2.3883  51.2287 0163534 280.9464  76.8850  1.01159213 19721
Epoch: 2026-06-19T14:15Z
TLE epoch observation values (Epoch: 2026-06-19T14:15:34.064Z)
Latitude
0.00001°
Longitude
-70.80876°
Altitude
35,397.347 km
Speed
3.094 km/s
True Right ascension
03h 23m 36s
True Declination
0° 00' 00"
Sunlit
Object was in daylight at epoch
Visualization orbit readout
Latitude
Unknown
Longitude
Unknown
Altitude
Unknown
Speed
Unknown
Apparent Right ascension
Unknown
Apparent Declination
Unknown
Sunlit
N/A
Visualization observer readout
Local Sidereal Time
03:23:09
Azimuth
Unknown
Elevation
Unknown
Doppler factor
Unknown
Orbital elements
Apogee altitude
36,226.227 km
Perigee altitude
34,855.196 km
Semi-major axis
41,918.848 km
Eccentricity
0.01635
Inclination
2.3883°
RAAN
51.2287°
Arg. of periapsis
280.9464°
True anomaly
78.71827°
Mean anomaly
76.885°
Eccentric anomaly
77.80082°
Mean motion
0.25289 °/min
Orbital period
1,423.55 mins
BSTAR
0
Loading maneuver chart data...
Computing Atmospheric mass density...

Documentation

Showing up to 5 results
|